Puerto Plata, Dominican Republic

11:16 PM AST on September 19, 2017 (GMT -0400)
Gregorio Luperon International

Weather History for MDPP - December, 2012

Change the Weather History Date:

Sunday, December 2, 2012

  Actual Average Record
Temperature  
Mean Temperature 77 °F -  
Max Temperature 84 °F 81 °F 89 °F (2015)
Min Temperature 70 °F 69 °F 32 °F (1996)
Cooling Degree Days 12    
Growing Degree Days 27 (Base 50)    
Moisture  
Dew Point 74 °F    
Average Humidity 85    
Maximum Humidity 100    
Minimum Humidity 73    
Precipitation  
Precipitation 0.00 in - - ()
Sea Level Pressure  
Sea Level Pressure 29.93 in    
Wind  
Wind Speed 2 mph ()    
Max Wind Speed 12 mph    
Max Gust Speed -    
Visibility 6.9 miles    
Events Rain    
Averages and records for this station are not official NWS values.
T = Trace of Precipitation, MM = Missing Value Source: Averaged Metar Reports

Daily Weather History Graph

Daily Weather History Graph

Search for Another Location

Airport or City:

Trip Planner

Search our weather history database for the weather conditions in past years. The results will help you decide how hot, cold, wet, or windy it might be!

Date:

Astronomy

Dec. 02, 2012 Rise Set
Actual Time 7:01 AM AST 6:02 PM AST
Civil Twilight 6:37 AM AST 6:26 PM AST
Nautical Twilight 6:10 AM AST 6:53 PM AST
Astronomical Twilight 5:43 AM AST 7:20 PM AST
Moon 9:33 PM AST (12/2) 9:59 AM AST (12/2)
Length of Visible Light 11h 48m
Length of Day
11h 00m
Waning Gibbous, 86% of the Moon is Illuminated
Dec 2
Waning Gibbous
Dec 6
Last Quarter
Dec 13
New
Dec 20
First Quarter
Dec 28
Full

Hourly Weather History & Observations

Time (AST) Temp. Heat Index Dew Point Humidity Pressure Visibility Wind Dir Wind Speed Gust Speed Precip Events Conditions
2:00 AM 75 °F - 73 °F 90% 29.93 in 10 mi Calm Calm - -   Scattered Clouds
2:00 AM 75.2 °F - 73.4 °F 94% 29.92 in 6.2 mi Calm Calm - N/A   Partly Cloudy
5:00 AM 74 °F - 72 °F 91% 29.91 in 10 mi Calm Calm - -  
5:00 AM 75.2 °F - 75.2 °F 100% 29.89 in 6.2 mi Calm Calm - N/A   Partly Cloudy
8:00 AM 73 °F - 72 °F 95% 29.94 in 10 mi Calm Calm - -   Scattered Clouds
8:00 AM 73.4 °F - 71.6 °F 94% 29.92 in 6.2 mi Calm Calm - N/A   Partly Cloudy
9:00 AM 77.0 °F - 71.6 °F 83% 29.95 in 6.2 mi Calm Calm - N/A   Partly Cloudy
10:00 AM 82.4 °F 89.5 °F 75.2 °F 79% 29.95 in 6.2 mi Calm Calm - N/A   Scattered Clouds
11:00 AM 82 °F - 75 °F 73% 29.98 in 10 mi North 6.7 mph - -   Partly Cloudy
11:00 AM 82.4 °F 89.5 °F 75.2 °F 79% 29.95 in 6.2 mi North 6.9 mph - N/A   Scattered Clouds
11:15 AM 82.4 °F 89.5 °F 75.2 °F 79% 29.98 in 5.0 mi North 11.5 mph - N/A Rain Light Rain
12:00 PM 77.0 °F - 71.6 °F 83% 29.98 in 6.2 mi Calm Calm - N/A   Mostly Cloudy
1:00 PM 80.6 °F 85.4 °F 73.4 °F 79% 29.95 in 6.2 mi WNW 6.9 mph - N/A   Scattered Clouds
2:00 PM 82 °F - 75 °F 75% 29.92 in 10 mi NNW 6.7 mph - -   Partly Cloudy
2:00 PM 82.4 °F 89.5 °F 75.2 °F 79% 29.92 in 6.2 mi NNW 6.9 mph - N/A   Scattered Clouds
3:00 PM 82.4 °F 89.5 °F 75.2 °F 79% 29.89 in 6.2 mi Calm Calm - N/A   Mostly Cloudy
4:00 PM 80.6 °F 86.2 °F 75.2 °F 84% 29.89 in 6.2 mi North 6.9 mph - N/A   Mostly Cloudy
5:00 PM 81 °F - 74 °F 75% 29.89 in 10 mi Calm Calm - -   Mostly Cloudy
5:00 PM 80.6 °F 86.2 °F 75.2 °F 84% 29.89 in 6.2 mi Calm Calm - N/A   Mostly Cloudy
6:00 PM 78.8 °F - 73.4 °F 83% 29.89 in 5.0 mi Calm Calm - N/A Rain Light Rain
8:00 PM 75.2 °F - 71.6 °F 89% 29.92 in 6.2 mi Calm Calm - N/A   Mostly Cloudy
9:00 PM 71.6 °F - 71.6 °F 100% 29.92 in 5.0 mi Calm Calm - N/A Rain Light Rain
11:00 PM - - - % 29.96 in 4 mi Calm Calm - - Rain Light Rain